Year,Month,Day,Hour,Minute,Value (Times are PST for temperature in C)
2007,04,12,00,00,7.50
2007,04,12,00,01,7.50
2007,04,12,00,02,7.40
2007,04,12,00,03,7.40
2007,04,12,00,04,7.40
2007,04,12,00,05,7.30
2007,04,12,00,06,7.30
2007,04,12,00,07,7.30
2007,04,12,00,08,7.20
2007,04,12,00,09,7.20
2007,04,12,00,10,7.20
2007,04,12,00,11,7.20
2007,04,12,00,12,7.10
2007,04,12,00,13,7.10
2007,04,12,00,14,7.10
2007,04,12,00,15,7.00
2007,04,12,00,16,7.00
2007,04,12,00,17,6.90
2007,04,12,00,18,6.90
2007,04,12,00,19,6.90
2007,04,12,00,20,6.90
2007,04,12,00,21,6.90
2007,04,12,00,22,6.80
2007,04,12,00,23,6.80
2007,04,12,00,24,6.80
2007,04,12,00,25,6.70
2007,04,12,00,26,6.70
2007,04,12,00,27,6.70
2007,04,12,00,28,6.70
2007,04,12,00,29,6.60
2007,04,12,00,30,6.60
2007,04,12,00,31,6.50
2007,04,12,00,32,6.50
2007,04,12,00,33,6.40
2007,04,12,00,34,6.40
2007,04,12,00,35,6.40
2007,04,12,00,36,6.30
2007,04,12,00,37,6.30
2007,04,12,00,38,6.30
2007,04,12,00,39,6.30
2007,04,12,00,40,6.30
2007,04,12,00,41,6.30
2007,04,12,00,42,6.30
2007,04,12,00,43,6.30
2007,04,12,00,44,6.40
2007,04,12,00,45,6.40
2007,04,12,00,46,6.40
2007,04,12,00,47,6.40
2007,04,12,00,48,6.40
2007,04,12,00,49,6.40
2007,04,12,00,50,6.50
2007,04,12,00,51,6.50
2007,04,12,00,52,6.40
2007,04,12,00,53,6.40
2007,04,12,00,54,6.40
2007,04,12,00,55,6.40
2007,04,12,00,56,6.40
2007,04,12,00,57,6.40
2007,04,12,00,58,6.40
2007,04,12,00,59,6.40
2007,04,12,01,00,6.40
2007,04,12,01,01,6.40
2007,04,12,01,02,6.40
2007,04,12,01,03,6.40
2007,04,12,01,04,6.40
2007,04,12,01,05,6.40
2007,04,12,01,06,6.40
2007,04,12,01,07,6.40
2007,04,12,01,08,6.40
2007,04,12,01,09,6.40
2007,04,12,01,10,6.40
2007,04,12,01,11,6.30
2007,04,12,01,12,6.30
2007,04,12,01,13,6.30
2007,04,12,01,14,6.30
2007,04,12,01,15,6.30
2007,04,12,01,16,6.30
2007,04,12,01,17,6.30
2007,04,12,01,18,6.30
2007,04,12,01,19,6.30
2007,04,12,01,20,6.30
2007,04,12,01,21,6.30
2007,04,12,01,22,6.20
2007,04,12,01,23,6.20
2007,04,12,01,24,6.20
2007,04,12,01,25,6.20
2007,04,12,01,26,6.10
2007,04,12,01,27,6.10
2007,04,12,01,28,6.10
2007,04,12,01,29,6.10
2007,04,12,01,30,6.10
2007,04,12,01,31,6.10
2007,04,12,01,32,6.10
2007,04,12,01,33,6.10
2007,04,12,01,34,6.10
2007,04,12,01,35,6.10
2007,04,12,01,36,6.10
2007,04,12,01,37,6.10
2007,04,12,01,38,6.00
2007,04,12,01,39,6.00
2007,04,12,01,40,5.90
2007,04,12,01,41,5.90
2007,04,12,01,42,5.90
2007,04,12,01,43,5.80
2007,04,12,01,44,5.80
2007,04,12,01,45,5.80
2007,04,12,01,46,5.70
2007,04,12,01,47,5.70
2007,04,12,01,48,5.70
2007,04,12,01,49,5.70
2007,04,12,01,50,5.70
2007,04,12,01,51,5.60
2007,04,12,01,52,5.60
2007,04,12,01,53,5.60
2007,04,12,01,54,5.60
2007,04,12,01,55,5.60
2007,04,12,01,56,5.60
2007,04,12,01,57,5.60
2007,04,12,01,58,5.60
2007,04,12,01,59,5.50
2007,04,12,02,00,5.50
2007,04,12,02,01,5.50
2007,04,12,02,02,5.40
2007,04,12,02,03,5.40
2007,04,12,02,04,5.40
2007,04,12,02,05,5.40
2007,04,12,02,06,5.40
2007,04,12,02,07,5.30
2007,04,12,02,08,5.30
2007,04,12,02,09,5.30
2007,04,12,02,10,5.30
2007,04,12,02,11,5.30
2007,04,12,02,12,5.20
2007,04,12,02,13,5.20
2007,04,12,02,14,5.20
2007,04,12,02,15,5.20
2007,04,12,02,16,5.20
2007,04,12,02,17,5.20
2007,04,12,02,18,5.20
2007,04,12,02,19,5.20
2007,04,12,02,20,5.10
2007,04,12,02,21,5.10
2007,04,12,02,22,5.10
2007,04,12,02,23,5.10
2007,04,12,02,24,5.10
2007,04,12,02,25,5.10
2007,04,12,02,26,5.10
2007,04,12,02,27,5.10
2007,04,12,02,28,5.10
2007,04,12,02,29,5.10
2007,04,12,02,30,5.10
2007,04,12,02,31,5.10
2007,04,12,02,32,5.10
2007,04,12,02,33,5.10
2007,04,12,02,34,5.10
2007,04,12,02,35,5.00
2007,04,12,02,36,5.00
2007,04,12,02,37,5.00
2007,04,12,02,38,5.00
2007,04,12,02,39,5.00
2007,04,12,02,40,5.00
2007,04,12,02,41,5.00
2007,04,12,02,42,5.00
2007,04,12,02,43,5.00
2007,04,12,02,44,5.00
2007,04,12,02,45,5.00
2007,04,12,02,46,5.00
2007,04,12,02,47,5.10
2007,04,12,02,48,5.10
2007,04,12,02,49,5.10
2007,04,12,02,50,5.00
2007,04,12,02,51,5.00
2007,04,12,02,52,5.00
2007,04,12,02,53,5.00
2007,04,12,02,54,5.00
2007,04,12,02,55,5.00
2007,04,12,02,56,5.00
2007,04,12,02,57,5.00
2007,04,12,02,58,4.90
2007,04,12,02,59,4.90
2007,04,12,03,00,4.90
2007,04,12,03,01,4.90
2007,04,12,03,02,4.80
2007,04,12,03,03,4.80
2007,04,12,03,04,4.80
2007,04,12,03,05,4.80
2007,04,12,03,06,4.80
2007,04,12,03,07,4.80
2007,04,12,03,08,4.80
2007,04,12,03,09,4.80
2007,04,12,03,10,4.80
2007,04,12,03,11,4.80
2007,04,12,03,12,4.80
2007,04,12,03,13,4.80
2007,04,12,03,14,4.80
2007,04,12,03,15,4.80
2007,04,12,03,16,4.80
2007,04,12,03,17,4.80
2007,04,12,03,18,4.80
2007,04,12,03,19,4.80
2007,04,12,03,20,4.70
2007,04,12,03,21,4.70
2007,04,12,03,22,4.70
2007,04,12,03,23,4.70
2007,04,12,03,24,4.70
2007,04,12,03,25,4.70
2007,04,12,03,26,4.70
2007,04,12,03,27,4.70
2007,04,12,03,28,4.70
2007,04,12,03,29,4.70
2007,04,12,03,30,4.70
2007,04,12,03,31,4.70
2007,04,12,03,32,4.80
2007,04,12,03,33,4.80
2007,04,12,03,34,4.80
2007,04,12,03,35,4.80
2007,04,12,03,36,4.80
2007,04,12,03,37,4.80
2007,04,12,03,38,4.80
2007,04,12,03,39,4.80
2007,04,12,03,40,4.80
2007,04,12,03,41,4.80
2007,04,12,03,42,4.80
2007,04,12,03,43,4.80
2007,04,12,03,44,4.80
2007,04,12,03,45,4.80
2007,04,12,03,46,4.80
2007,04,12,03,47,4.80
2007,04,12,03,48,4.80
2007,04,12,03,49,4.80
2007,04,12,03,50,4.80
2007,04,12,03,51,4.80
2007,04,12,03,52,4.80
2007,04,12,03,53,4.80
2007,04,12,03,54,4.80
2007,04,12,03,55,4.80
2007,04,12,03,56,4.80
2007,04,12,03,57,4.80
2007,04,12,03,58,4.80
2007,04,12,03,59,4.80
2007,04,12,04,00,4.80
2007,04,12,04,01,4.80
2007,04,12,04,02,4.80
2007,04,12,04,03,4.80
2007,04,12,04,04,4.80
2007,04,12,04,05,4.80
2007,04,12,04,06,4.80
2007,04,12,04,07,4.80
2007,04,12,04,08,4.80
2007,04,12,04,09,4.80
2007,04,12,04,10,4.80
2007,04,12,04,11,4.80
2007,04,12,04,12,4.80
2007,04,12,04,13,4.80
2007,04,12,04,14,4.80
2007,04,12,04,15,4.70
2007,04,12,04,16,4.70
2007,04,12,04,17,4.70
2007,04,12,04,18,4.70
2007,04,12,04,19,4.70
2007,04,12,04,20,4.70
2007,04,12,04,21,4.70
2007,04,12,04,22,4.70
2007,04,12,04,23,4.70
2007,04,12,04,24,4.70
2007,04,12,04,25,4.70
2007,04,12,04,26,4.70
2007,04,12,04,27,4.70
2007,04,12,04,28,4.70
2007,04,12,04,29,4.70
2007,04,12,04,30,4.70
2007,04,12,04,31,4.70
2007,04,12,04,32,4.70
2007,04,12,04,33,4.70
2007,04,12,04,34,4.70
2007,04,12,04,35,4.60
2007,04,12,04,36,4.60
2007,04,12,04,37,4.60
2007,04,12,04,38,4.60
2007,04,12,04,39,4.60
2007,04,12,04,40,4.60
2007,04,12,04,41,4.60
2007,04,12,04,42,4.60
2007,04,12,04,43,4.60
2007,04,12,04,44,4.60
2007,04,12,04,45,4.60
2007,04,12,04,46,4.60
2007,04,12,04,47,4.60
2007,04,12,04,48,4.70
2007,04,12,04,49,4.70
2007,04,12,04,50,4.70
2007,04,12,04,51,4.70
2007,04,12,04,52,4.70
2007,04,12,04,53,4.70
2007,04,12,04,54,4.70
2007,04,12,04,55,4.70
2007,04,12,04,56,4.70
2007,04,12,04,57,4.70
2007,04,12,04,58,4.70
2007,04,12,04,59,4.70
2007,04,12,05,00,4.70
2007,04,12,05,01,4.70
2007,04,12,05,02,4.70
2007,04,12,05,03,4.70
2007,04,12,05,04,4.70
2007,04,12,05,05,4.70
2007,04,12,05,06,4.60
2007,04,12,05,07,4.60
2007,04,12,05,08,4.60
2007,04,12,05,09,4.60
2007,04,12,05,10,4.60
2007,04,12,05,11,4.60
2007,04,12,05,12,4.50
2007,04,12,05,13,4.50
2007,04,12,05,14,4.50
2007,04,12,05,15,4.40
2007,04,12,05,16,4.40
2007,04,12,05,17,4.40
2007,04,12,05,18,4.40
2007,04,12,05,19,4.40
2007,04,12,05,20,4.40
2007,04,12,05,21,4.40
2007,04,12,05,22,4.40
2007,04,12,05,23,4.40
2007,04,12,05,24,4.30
2007,04,12,05,25,4.30
2007,04,12,05,26,4.30
2007,04,12,05,27,4.30
2007,04,12,05,28,4.30
2007,04,12,05,29,4.20
2007,04,12,05,30,4.20
2007,04,12,05,31,4.20
2007,04,12,05,32,4.20
2007,04,12,05,33,4.20
2007,04,12,05,34,4.20
2007,04,12,05,35,4.20
2007,04,12,05,36,4.20
2007,04,12,05,37,4.20
2007,04,12,05,38,4.20
2007,04,12,05,39,4.20
2007,04,12,05,40,4.10
2007,04,12,05,41,4.10
2007,04,12,05,42,4.10
2007,04,12,05,43,4.10
2007,04,12,05,44,4.10
2007,04,12,05,45,4.10
2007,04,12,05,46,4.10
2007,04,12,05,47,4.00
2007,04,12,05,48,4.00
2007,04,12,05,49,3.90
2007,04,12,05,50,3.90
2007,04,12,05,51,3.90
2007,04,12,05,52,3.90
2007,04,12,05,53,3.90
2007,04,12,05,54,3.90
2007,04,12,05,55,3.80
2007,04,12,05,56,3.80
2007,04,12,05,57,3.80
2007,04,12,05,58,3.80
2007,04,12,05,59,3.80
2007,04,12,06,00,3.80
2007,04,12,06,01,3.80
2007,04,12,06,02,3.80
2007,04,12,06,03,3.80
2007,04,12,06,04,3.80
2007,04,12,06,05,3.80
2007,04,12,06,06,3.80
2007,04,12,06,07,3.70
2007,04,12,06,08,3.70
2007,04,12,06,09,3.70
2007,04,12,06,10,3.70
2007,04,12,06,11,3.70
2007,04,12,06,12,3.70
2007,04,12,06,13,3.70
2007,04,12,06,14,3.70
2007,04,12,06,15,3.70
2007,04,12,06,16,3.70
2007,04,12,06,17,3.80
2007,04,12,06,18,3.80
2007,04,12,06,19,3.80
2007,04,12,06,20,3.80
2007,04,12,06,21,3.80
2007,04,12,06,22,3.80
2007,04,12,06,23,3.80
2007,04,12,06,24,3.80
2007,04,12,06,25,3.80
2007,04,12,06,26,3.80
2007,04,12,06,27,3.80
2007,04,12,06,28,3.80
2007,04,12,06,29,3.80
2007,04,12,06,30,3.80
2007,04,12,06,31,3.80
2007,04,12,06,32,3.90
2007,04,12,06,33,3.90
2007,04,12,06,34,3.90
2007,04,12,06,35,3.90
2007,04,12,06,36,3.90
2007,04,12,06,37,3.90
2007,04,12,06,38,3.90
2007,04,12,06,39,3.90
2007,04,12,06,40,3.90
2007,04,12,06,41,3.90
2007,04,12,06,42,3.90
2007,04,12,06,43,3.90
2007,04,12,06,44,3.90
2007,04,12,06,45,3.90
2007,04,12,06,46,3.90
2007,04,12,06,47,3.90
2007,04,12,06,48,3.90
2007,04,12,06,49,3.90
2007,04,12,06,50,3.90
2007,04,12,06,51,3.90
2007,04,12,06,52,4.00
2007,04,12,06,53,4.00
2007,04,12,06,54,4.00
2007,04,12,06,55,4.10
2007,04,12,06,56,4.10
2007,04,12,06,57,4.10
2007,04,12,06,58,4.10
2007,04,12,06,59,4.10
2007,04,12,07,00,4.20
2007,04,12,07,01,4.20
2007,04,12,07,02,4.20
2007,04,12,07,03,4.20
2007,04,12,07,04,4.30
2007,04,12,07,05,4.30
2007,04,12,07,06,4.30
2007,04,12,07,07,4.30
2007,04,12,07,08,4.30
2007,04,12,07,09,4.40
2007,04,12,07,10,4.40
2007,04,12,07,11,4.40
2007,04,12,07,12,4.40
2007,04,12,07,13,4.40
2007,04,12,07,14,4.50
2007,04,12,07,15,4.50
2007,04,12,07,16,4.50
2007,04,12,07,17,4.50
2007,04,12,07,18,4.60
2007,04,12,07,19,4.60
2007,04,12,07,20,4.60
2007,04,12,07,21,4.60
2007,04,12,07,22,4.60
2007,04,12,07,23,4.70
2007,04,12,07,24,4.70
2007,04,12,07,25,4.70
2007,04,12,07,26,4.70
2007,04,12,07,27,4.70
2007,04,12,07,28,4.70
2007,04,12,07,29,4.80
2007,04,12,07,30,4.80
2007,04,12,07,31,4.80
2007,04,12,07,32,4.90
2007,04,12,07,33,4.90
2007,04,12,07,34,4.90
2007,04,12,07,35,5.00
2007,04,12,07,36,5.10
2007,04,12,07,37,5.10
2007,04,12,07,38,5.10
2007,04,12,07,39,5.10
2007,04,12,07,40,5.20
2007,04,12,07,41,5.20
2007,04,12,07,42,5.20
2007,04,12,07,43,5.30
2007,04,12,07,44,5.30
2007,04,12,07,45,5.30
2007,04,12,07,46,5.40
2007,04,12,07,47,5.40
2007,04,12,07,48,5.40
2007,04,12,07,49,5.50
2007,04,12,07,50,5.50
2007,04,12,07,51,5.60
2007,04,12,07,52,5.60
2007,04,12,07,53,5.70
2007,04,12,07,54,5.70
2007,04,12,07,55,5.80
2007,04,12,07,56,5.90
2007,04,12,07,57,5.90
2007,04,12,07,58,6.00
2007,04,12,07,59,6.00
2007,04,12,08,00,6.10
2007,04,12,08,01,6.20
2007,04,12,08,02,6.20
2007,04,12,08,03,6.30
2007,04,12,08,04,6.30
2007,04,12,08,05,6.40
2007,04,12,08,06,6.40
2007,04,12,08,07,6.40
2007,04,12,08,08,6.50
2007,04,12,08,09,6.50
2007,04,12,08,10,6.60
2007,04,12,08,11,6.60
2007,04,12,08,12,6.70
2007,04,12,08,13,6.70
2007,04,12,08,14,6.80
2007,04,12,08,15,6.80
2007,04,12,08,16,6.80
2007,04,12,08,17,6.80
2007,04,12,08,18,6.90
2007,04,12,08,19,6.90
2007,04,12,08,20,6.90
2007,04,12,08,21,6.90
2007,04,12,08,22,7.00
2007,04,12,08,23,7.00
2007,04,12,08,24,7.00
2007,04,12,08,25,7.10
2007,04,12,08,26,7.10
2007,04,12,08,27,7.10
2007,04,12,08,28,7.20
2007,04,12,08,29,7.20
2007,04,12,08,30,7.20
2007,04,12,08,31,7.30
2007,04,12,08,32,7.40
2007,04,12,08,33,7.50
2007,04,12,08,34,7.70
2007,04,12,08,35,7.90
2007,04,12,08,36,8.10
2007,04,12,08,37,8.30
2007,04,12,08,38,8.40
2007,04,12,08,39,8.60
2007,04,12,08,40,8.80
2007,04,12,08,41,8.90
2007,04,12,08,42,9.00
2007,04,12,08,43,9.10
2007,04,12,08,44,9.20
2007,04,12,08,45,9.30
2007,04,12,08,46,9.40
2007,04,12,08,47,9.40
2007,04,12,08,48,9.60
2007,04,12,08,49,9.60
2007,04,12,08,50,9.70
2007,04,12,08,51,9.70
2007,04,12,08,52,9.70
2007,04,12,08,53,9.80
2007,04,12,08,54,9.80
2007,04,12,08,55,9.90
2007,04,12,08,56,10.00
2007,04,12,08,57,10.10
2007,04,12,08,58,10.10
2007,04,12,08,59,10.10
2007,04,12,09,00,10.10
2007,04,12,09,01,10.10
2007,04,12,09,02,10.10
2007,04,12,09,03,10.20
2007,04,12,09,04,10.20
2007,04,12,09,05,10.20
2007,04,12,09,06,10.20
2007,04,12,09,07,10.10
2007,04,12,09,08,10.10
2007,04,12,09,09,10.00
2007,04,12,09,10,9.90
2007,04,12,09,11,9.80
2007,04,12,09,12,9.70
2007,04,12,09,13,9.70
2007,04,12,09,14,9.60
2007,04,12,09,15,9.50
2007,04,12,09,16,9.40
2007,04,12,09,17,9.30
2007,04,12,09,18,9.30
2007,04,12,09,19,9.20
2007,04,12,09,20,9.20
2007,04,12,09,21,9.20
2007,04,12,09,22,9.10
2007,04,12,09,23,9.10
2007,04,12,09,24,9.10
2007,04,12,09,25,9.10
2007,04,12,09,26,9.10
2007,04,12,09,27,9.00
2007,04,12,09,28,9.00
2007,04,12,09,29,8.90
2007,04,12,09,30,8.90
2007,04,12,09,31,8.80
2007,04,12,09,32,8.70
2007,04,12,09,33,8.70
2007,04,12,09,34,8.70
2007,04,12,09,35,8.70
2007,04,12,09,36,8.70
2007,04,12,09,37,8.70
2007,04,12,09,38,8.70
2007,04,12,09,39,8.70
2007,04,12,09,40,8.70
2007,04,12,09,41,8.70
2007,04,12,09,42,8.60
2007,04,12,09,43,8.60
2007,04,12,09,44,8.60
2007,04,12,09,45,8.50
2007,04,12,09,46,8.50
2007,04,12,09,47,8.50
2007,04,12,09,48,8.40
2007,04,12,09,49,8.40
2007,04,12,09,50,8.40
2007,04,12,09,51,8.40
2007,04,12,09,52,8.40
2007,04,12,09,53,8.40
2007,04,12,09,54,8.40
2007,04,12,09,55,8.40
2007,04,12,09,56,8.30
2007,04,12,09,57,8.30
2007,04,12,09,58,8.30
2007,04,12,09,59,8.30
2007,04,12,10,00,8.30
2007,04,12,10,01,8.30
2007,04,12,10,02,8.40
2007,04,12,10,03,8.40
2007,04,12,10,04,8.40
2007,04,12,10,05,8.40
2007,04,12,10,06,8.40
2007,04,12,10,07,8.40
2007,04,12,10,08,8.30
2007,04,12,10,09,8.30
2007,04,12,10,10,8.30
2007,04,12,10,11,8.30
2007,04,12,10,12,8.30
2007,04,12,10,13,8.30
2007,04,12,10,14,8.30
2007,04,12,10,15,8.30
2007,04,12,10,16,8.30
2007,04,12,10,17,8.30
2007,04,12,10,18,8.30
2007,04,12,10,19,8.30
2007,04,12,10,20,8.30
2007,04,12,10,21,8.30
2007,04,12,10,22,8.20
2007,04,12,10,23,8.30
2007,04,12,10,24,8.30
2007,04,12,10,25,8.20
2007,04,12,10,26,8.20
2007,04,12,10,27,8.20
2007,04,12,10,28,8.20
2007,04,12,10,29,8.20
2007,04,12,10,30,8.20
2007,04,12,10,31,8.20
2007,04,12,10,32,8.20
2007,04,12,10,33,8.20
2007,04,12,10,34,8.20
2007,04,12,10,35,8.20
2007,04,12,10,36,8.20
2007,04,12,10,37,8.20
2007,04,12,10,38,8.20
2007,04,12,10,39,8.20
2007,04,12,10,40,8.20
2007,04,12,10,41,8.20
2007,04,12,10,42,8.20
2007,04,12,10,43,8.20
2007,04,12,10,44,8.20
2007,04,12,10,45,8.30
2007,04,12,10,46,8.30
2007,04,12,10,47,8.30
2007,04,12,10,48,8.30
2007,04,12,10,49,8.30
2007,04,12,10,50,8.30
2007,04,12,10,51,8.30
2007,04,12,10,52,8.30
2007,04,12,10,53,8.30
2007,04,12,10,54,8.30
2007,04,12,10,55,8.30
2007,04,12,10,56,8.30
2007,04,12,10,57,8.30
2007,04,12,10,58,8.40
2007,04,12,10,59,8.40
2007,04,12,11,00,8.40
2007,04,12,11,01,8.40
2007,04,12,11,02,8.40
2007,04,12,11,03,8.50
2007,04,12,11,04,8.60
2007,04,12,11,05,8.60
2007,04,12,11,06,8.60
2007,04,12,11,07,8.60
2007,04,12,11,08,8.70
2007,04,12,11,09,8.70
2007,04,12,11,10,8.70
2007,04,12,11,11,8.80
2007,04,12,11,12,8.80
2007,04,12,11,13,8.80
2007,04,12,11,14,8.90
2007,04,12,11,15,8.90
2007,04,12,11,16,9.00
2007,04,12,11,17,9.00
2007,04,12,11,18,9.10
2007,04,12,11,19,9.10
2007,04,12,11,20,9.20
2007,04,12,11,21,9.30
2007,04,12,11,22,9.30
2007,04,12,11,23,9.40
2007,04,12,11,24,9.50
2007,04,12,11,25,9.60
2007,04,12,11,26,9.70
2007,04,12,11,27,9.70
2007,04,12,11,28,9.80
2007,04,12,11,29,9.80
2007,04,12,11,30,9.90
2007,04,12,11,31,9.90
2007,04,12,11,32,10.00
2007,04,12,11,33,10.10
2007,04,12,11,34,10.20
2007,04,12,11,35,10.30
2007,04,12,11,36,10.40
2007,04,12,11,37,10.40
2007,04,12,11,38,10.50
2007,04,12,11,39,10.60
2007,04,12,11,40,10.60
2007,04,12,11,41,10.70
2007,04,12,11,42,10.70
2007,04,12,11,43,10.80
2007,04,12,11,44,10.80
2007,04,12,11,45,10.90
2007,04,12,11,46,11.00
2007,04,12,11,47,11.00
2007,04,12,11,48,11.10
2007,04,12,11,49,11.10
2007,04,12,11,50,11.10
2007,04,12,11,51,11.10
2007,04,12,11,52,11.10
2007,04,12,11,53,11.20
2007,04,12,11,54,11.20
2007,04,12,11,55,11.20
2007,04,12,11,56,11.20
2007,04,12,11,57,11.20
2007,04,12,11,58,11.20
2007,04,12,11,59,11.20
2007,04,12,12,00,11.30
2007,04,12,12,01,11.30
2007,04,12,12,02,11.30
2007,04,12,12,03,11.30
2007,04,12,12,04,11.30
2007,04,12,12,05,11.40
2007,04,12,12,06,11.40
2007,04,12,12,07,11.40
2007,04,12,12,08,11.40
2007,04,12,12,09,11.40
2007,04,12,12,10,11.40
2007,04,12,12,11,11.30
2007,04,12,12,12,11.30
2007,04,12,12,13,11.30
2007,04,12,12,14,11.30
2007,04,12,12,15,11.30
2007,04,12,12,16,11.30
2007,04,12,12,17,11.20
2007,04,12,12,18,11.20
2007,04,12,12,19,11.20
2007,04,12,12,20,11.30
2007,04,12,12,21,11.30
2007,04,12,12,22,11.20
2007,04,12,12,23,11.20
2007,04,12,12,24,11.20
2007,04,12,12,25,11.10
2007,04,12,12,26,11.10
2007,04,12,12,27,11.00
2007,04,12,12,28,11.00
2007,04,12,12,29,11.00
2007,04,12,12,30,11.00
2007,04,12,12,31,10.90
2007,04,12,12,32,10.90
2007,04,12,12,33,10.90
2007,04,12,12,34,10.90
2007,04,12,12,35,10.90
2007,04,12,12,36,10.90
2007,04,12,12,37,10.90
2007,04,12,12,38,10.90
2007,04,12,12,39,10.90
2007,04,12,12,40,10.90
2007,04,12,12,41,10.90
2007,04,12,12,42,10.90
2007,04,12,12,43,10.90
2007,04,12,12,44,10.90
2007,04,12,12,45,10.80
2007,04,12,12,46,10.80
2007,04,12,12,47,10.80
2007,04,12,12,48,10.80
2007,04,12,12,49,10.80
2007,04,12,12,50,10.80
2007,04,12,12,51,10.80
2007,04,12,12,52,10.80
2007,04,12,12,53,10.80
2007,04,12,12,54,10.80
2007,04,12,12,55,10.80
2007,04,12,12,56,10.80
2007,04,12,12,57,10.80
2007,04,12,12,58,10.80
2007,04,12,12,59,10.80
2007,04,12,13,00,10.80
2007,04,12,13,01,10.80
2007,04,12,13,02,10.80
2007,04,12,13,03,10.80
2007,04,12,13,04,10.80
2007,04,12,13,05,10.80
2007,04,12,13,06,10.80
2007,04,12,13,07,10.80
2007,04,12,13,08,10.80
2007,04,12,13,09,10.80
2007,04,12,13,10,10.80
2007,04,12,13,11,10.80
2007,04,12,13,12,10.80
2007,04,12,13,13,10.80
2007,04,12,13,14,10.80
2007,04,12,13,15,10.80
2007,04,12,13,16,10.80
2007,04,12,13,17,10.80
2007,04,12,13,18,10.80
2007,04,12,13,19,10.90
2007,04,12,13,20,10.90
2007,04,12,13,21,11.00
2007,04,12,13,22,11.00
2007,04,12,13,23,11.00
2007,04,12,13,24,11.10
2007,04,12,13,25,11.10
2007,04,12,13,26,11.20
2007,04,12,13,27,11.20
2007,04,12,13,28,11.30
2007,04,12,13,29,11.30
2007,04,12,13,30,11.40
2007,04,12,13,31,11.40
2007,04,12,13,32,11.40
2007,04,12,13,33,11.50
2007,04,12,13,34,11.60
2007,04,12,13,35,11.60
2007,04,12,13,36,11.60
2007,04,12,13,37,11.70
2007,04,12,13,38,11.70
2007,04,12,13,39,11.70
2007,04,12,13,40,11.70
2007,04,12,13,41,11.80
2007,04,12,13,42,11.80
2007,04,12,13,43,11.80
2007,04,12,13,44,11.80
2007,04,12,13,45,11.80
2007,04,12,13,46,11.80
2007,04,12,13,47,11.80
2007,04,12,13,48,11.80
2007,04,12,13,49,11.90
2007,04,12,13,50,11.90
2007,04,12,13,51,11.90
2007,04,12,13,52,11.90
2007,04,12,13,53,11.90
2007,04,12,13,54,12.00
2007,04,12,13,55,12.00
2007,04,12,13,56,12.00
2007,04,12,13,57,12.00
2007,04,12,13,58,12.10
2007,04,12,13,59,12.10
2007,04,12,14,00,12.10
2007,04,12,14,01,12.20
2007,04,12,14,02,12.20
2007,04,12,14,03,12.20
2007,04,12,14,04,12.20
2007,04,12,14,05,12.30
2007,04,12,14,06,12.30
2007,04,12,14,07,12.40
2007,04,12,14,08,12.50
2007,04,12,14,09,12.50
2007,04,12,14,10,12.60
2007,04,12,14,11,12.50
2007,04,12,14,12,12.50
2007,04,12,14,13,12.50
2007,04,12,14,14,12.50
2007,04,12,14,15,12.60
2007,04,12,14,16,12.60
2007,04,12,14,17,12.60
2007,04,12,14,18,12.60
2007,04,12,14,19,12.60
2007,04,12,14,20,12.60
2007,04,12,14,21,12.60
2007,04,12,14,22,12.60
2007,04,12,14,23,12.60
2007,04,12,14,24,12.60
2007,04,12,14,25,12.70
2007,04,12,14,26,12.70
2007,04,12,14,27,12.70
2007,04,12,14,28,12.80
2007,04,12,14,29,12.80
2007,04,12,14,30,12.90
2007,04,12,14,31,13.00
2007,04,12,14,32,13.00
2007,04,12,14,33,13.10
2007,04,12,14,34,13.10
2007,04,12,14,35,13.10
2007,04,12,14,36,13.20
2007,04,12,14,37,13.20
2007,04,12,14,38,13.30
2007,04,12,14,39,13.30
2007,04,12,14,40,13.30
2007,04,12,14,41,13.30
2007,04,12,14,42,13.30
2007,04,12,14,43,13.30
2007,04,12,14,44,13.30
2007,04,12,14,45,13.30
2007,04,12,14,46,13.30
2007,04,12,14,47,13.20
2007,04,12,14,48,13.20
2007,04,12,14,49,13.10
2007,04,12,14,50,13.10
2007,04,12,14,51,13.10
2007,04,12,14,52,13.10
2007,04,12,14,53,13.10
2007,04,12,14,54,13.10
2007,04,12,14,55,13.10
2007,04,12,14,56,13.00
2007,04,12,14,57,13.00
2007,04,12,14,58,13.00
2007,04,12,14,59,13.00
2007,04,12,15,00,13.10
2007,04,12,15,01,13.10
2007,04,12,15,02,13.10
2007,04,12,15,03,13.00
2007,04,12,15,04,13.10
2007,04,12,15,05,13.10
2007,04,12,15,06,13.10
2007,04,12,15,07,13.20
2007,04,12,15,08,13.20
2007,04,12,15,09,13.20
2007,04,12,15,10,13.20
2007,04,12,15,11,13.20
2007,04,12,15,12,13.30
2007,04,12,15,13,13.30
2007,04,12,15,14,13.40
2007,04,12,15,15,13.40
2007,04,12,15,16,13.50
2007,04,12,15,17,13.60
2007,04,12,15,18,13.60
2007,04,12,15,19,13.50
2007,04,12,15,20,13.50
2007,04,12,15,21,13.40
2007,04,12,15,22,13.40
2007,04,12,15,23,13.40
2007,04,12,15,24,13.40
2007,04,12,15,25,13.30
2007,04,12,15,26,13.30
2007,04,12,15,27,13.30
2007,04,12,15,28,13.30
2007,04,12,15,29,13.30
2007,04,12,15,30,13.30
2007,04,12,15,31,13.30
2007,04,12,15,32,13.30
2007,04,12,15,33,13.40
2007,04,12,15,34,13.40
2007,04,12,15,35,13.40
2007,04,12,15,36,13.50
2007,04,12,15,37,13.50
2007,04,12,15,38,13.50
2007,04,12,15,39,13.50
2007,04,12,15,40,13.60
2007,04,12,15,41,13.60
2007,04,12,15,42,13.60
2007,04,12,15,43,13.60
2007,04,12,15,44,13.60
2007,04,12,15,45,13.50
2007,04,12,15,46,13.40
2007,04,12,15,47,13.40
2007,04,12,15,48,13.40
2007,04,12,15,49,13.40
2007,04,12,15,50,13.30
2007,04,12,15,51,13.30
2007,04,12,15,52,13.30
2007,04,12,15,53,13.30
2007,04,12,15,54,13.30
2007,04,12,15,55,13.30
2007,04,12,15,56,13.30
2007,04,12,15,57,13.30
2007,04,12,15,58,13.40
2007,04,12,15,59,13.40
2007,04,12,16,00,13.40
2007,04,12,16,01,13.40
2007,04,12,16,02,13.40
2007,04,12,16,03,13.30
2007,04,12,16,04,13.30
2007,04,12,16,05,13.30
2007,04,12,16,06,13.30
2007,04,12,16,07,13.20
2007,04,12,16,08,13.20
2007,04,12,16,09,13.10
2007,04,12,16,10,13.20
2007,04,12,16,11,13.20
2007,04,12,16,12,13.20
2007,04,12,16,13,13.20
2007,04,12,16,14,13.10
2007,04,12,16,15,13.10
2007,04,12,16,16,13.10
2007,04,12,16,17,13.20
2007,04,12,16,18,13.20
2007,04,12,16,19,13.20
2007,04,12,16,20,13.20
2007,04,12,16,21,13.20
2007,04,12,16,22,13.30
2007,04,12,16,23,13.30
2007,04,12,16,24,13.30
2007,04,12,16,25,13.20
2007,04,12,16,26,13.20
2007,04,12,16,27,13.10
2007,04,12,16,28,13.10
2007,04,12,16,29,12.90
2007,04,12,16,30,12.90
2007,04,12,16,31,12.70
2007,04,12,16,32,12.60
2007,04,12,16,33,12.60
2007,04,12,16,34,12.50
2007,04,12,16,35,12.50
2007,04,12,16,36,12.40
2007,04,12,16,37,12.40
2007,04,12,16,38,12.40
2007,04,12,16,39,12.50
2007,04,12,16,40,12.50
2007,04,12,16,41,12.60
2007,04,12,16,42,12.60
2007,04,12,16,43,12.60
2007,04,12,16,44,12.60
2007,04,12,16,45,12.60
2007,04,12,16,46,12.60
2007,04,12,16,47,12.50
2007,04,12,16,48,12.50
2007,04,12,16,49,12.50
2007,04,12,16,50,12.50
2007,04,12,16,51,12.60
2007,04,12,16,52,12.60
2007,04,12,16,53,12.60
2007,04,12,16,54,12.60
2007,04,12,16,55,12.60
2007,04,12,16,56,12.50
2007,04,12,16,57,12.40
2007,04,12,16,58,12.40
2007,04,12,16,59,12.30
2007,04,12,17,00,12.30
2007,04,12,17,01,12.30
2007,04,12,17,02,12.30
2007,04,12,17,03,12.30
2007,04,12,17,04,12.20
2007,04,12,17,05,12.30
2007,04,12,17,06,12.30
2007,04,12,17,07,12.20
2007,04,12,17,08,12.20
2007,04,12,17,09,12.20
2007,04,12,17,10,12.20
2007,04,12,17,11,12.20
2007,04,12,17,12,12.20
2007,04,12,17,13,12.20
2007,04,12,17,14,12.10
2007,04,12,17,15,12.10
2007,04,12,17,16,12.10
2007,04,12,17,17,12.10
2007,04,12,17,18,12.10
2007,04,12,17,19,12.10
2007,04,12,17,20,12.10
2007,04,12,17,21,12.10
2007,04,12,17,22,12.10
2007,04,12,17,23,12.10
2007,04,12,17,24,12.10
2007,04,12,17,25,12.10
2007,04,12,17,26,12.00
2007,04,12,17,27,12.00
2007,04,12,17,28,12.00
2007,04,12,17,29,11.90
2007,04,12,17,30,12.00
2007,04,12,17,31,12.00
2007,04,12,17,32,12.00
2007,04,12,17,33,12.00
2007,04,12,17,34,11.90
2007,04,12,17,35,11.90
2007,04,12,17,36,11.90
2007,04,12,17,37,11.90
2007,04,12,17,38,11.90
2007,04,12,17,39,11.90
2007,04,12,17,40,12.00
2007,04,12,17,41,12.00
2007,04,12,17,42,12.00
2007,04,12,17,43,12.00
2007,04,12,17,44,12.00
2007,04,12,17,45,12.00
2007,04,12,17,46,11.90
2007,04,12,17,47,11.90
2007,04,12,17,48,11.90